Location: Izdebno
(52.6670°N, 16.2170°E)
Time: 00:03:49
(UTC+02:00)

Vanguard 2 Rocket - Pass Details

Date: 27 February 2024
Orbit: 555 x 3307 km, 32.9° (Epoch: 21 April)

Event Time Altitude Azimuth Distance (km) Brightness Sun altitude
Rises 16:58:02 0° 252° (WSW) 4,947 14.1 3.7°
Reaches altitude 10° 17:01:22 10° 242° (WSW) 4,318 12.6 3.2°
Maximum altitude 17:11:44 31° 187° (S) 3,819 10.4 1.7°
Drops below altitude 10° 17:26:19 10° 135° (SE) 6,098 10.8 -0.4°
Sets 17:32:15 0° 127° (SE) 7,262 11.1 -1.3°
